Simultaneous Nadir Overpasses (SNOs) Predictions

Prediction of SNOs between GOES-15 and TERRA Satellite Orbit:

Table of predicted SNOs for the next 14.0 days since TLE Epoch: 3/25/2023
Index Date Time (GOES-15) GOES-15 Lat,Lon TERRA Lat,Lon Distance(km) Time Diff (sec)
1 03/26/2023 06:41:22 0.12,-128.00 0.01,-128.45 51.54 80
2 03/28/2023 06:27:57 0.13,-128.06 0.88,-124.57 397.23 80
3 03/28/2023 18:45:32 -0.14,-128.11 0.18,-129.48 157.24 80
4 03/30/2023 18:32:06 -0.14,-128.17 -0.66,-125.60 291.36 80
5 03/31/2023 06:49:50 0.15,-128.15 -0.33,-130.56 273.76 80
6 04/02/2023 06:36:22 0.15,-128.21 0.44,-126.66 175.06 80
7 04/02/2023 18:53:58 -0.16,-128.25 0.54,-131.59 379.23 80
8 04/04/2023 18:40:30 -0.15,-128.31 -0.28,-127.69 69.59 80
9 04/05/2023 06:58:12 0.16,-128.29 -0.74,-132.65 495.53 80
10 04/07/2023 06:42:04 0.16,-128.33 0.07,-128.75 46.94 80
